Weather History for Redmond, OR

Change the Weather History Date:

Tuesday, October 5, 2010

  Actual Average Record
Temperature  
Mean Temperature 45 °F 51 °F  
Max Temperature 64 °F 69 °F 92 °F (1980)
Min Temperature 26 °F 33 °F 18 °F (2000)
Degree Days  
Heating Degree Days 20 14  
Month to date heating degree days 50 67  
Since 1 July heating degree days 457 466  
Cooling Degree Days 0 0  
Month to date cooling degree days 0 0  
Year to date cooling degree days 161 222  
Moisture  
Dew Point 33 °F    
Average Humidity 64    
Maximum Humidity 92    
Minimum Humidity 36    
Precipitation  
Precipitation 0.00 in 0.02 in 0.22 in (1963)
Month to date precipitation 0.01 0.08  
Year to date precipitation 7.15 6.22  
Sea Level Pressure  
Sea Level Pressure 30.29 in    
Wind  
Wind Speed 8 mph (NNW)    
Max Wind Speed 22 mph    
Max Gust Speed 29 mph    
Visibility 10 miles    
Events      
T = Trace of Precipitation, MM = Missing Value Source: NWS Daily Summary

Daily Weather History Graph

Daily Weather History Graph

Search for Another Location

Airport:

Trip Planner

Search our weather history database for the weather conditions in past years. The results will help you decide how hot, cold, wet, or windy it might be!

Date:

Astronomy

Oct. 05, 2010 Rise Set
Actual Time 7:07 AM PDT 6:37 PM PDT
Civil Twilight 6:38 AM PDT 7:06 PM PDT
Nautical Twilight 6:04 AM PDT 7:40 PM PDT
Astronomical Twilight 5:30 AM PDT 8:14 PM PDT
Moon 4:31 AM PDT (10/5) 5:14 PM PDT (10/5)
Length of Visible Light 12h 28m
Length of Day
11h 30m
Waning Crescent, 6% of the Moon is Illuminated
Oct 5
Waning Crescent
Oct 7
New
Oct 14
First Quarter
Oct 22
Full
Oct 30
Last Quarter

Hourly Weather History & Observations

Time (PDT) Temp. Windchill Dew Point Humidity Pressure Visibility Wind Dir Wind Speed Gust Speed Precip Events Conditions
12:56 AM 33.1 °F - 28.0 °F 82% 30.22 in 10.0 mi Calm Calm - N/A   Clear
1:56 AM 30.9 °F 27.5 °F 28.0 °F 89% 30.23 in 10.0 mi South 3.5 mph - N/A   Clear
2:56 AM 28.9 °F 23.9 °F 27.0 °F 92% 30.24 in 10.0 mi South 4.6 mph - N/A   Clear
3:56 AM 28.9 °F - 26.1 °F 89% 30.25 in 10.0 mi Calm Calm - N/A   Clear
4:56 AM 28.0 °F 22.8 °F 26.1 °F 92% 30.28 in 10.0 mi South 4.6 mph - N/A   Clear
5:56 AM 28.9 °F 25.2 °F 26.1 °F 89% 30.32 in 10.0 mi South 3.5 mph - N/A   Clear
6:56 AM 27.0 °F - 25.0 °F 92% 30.33 in 10.0 mi Calm Calm - N/A   Clear
7:56 AM 30.9 °F - 28.0 °F 89% 30.35 in 10.0 mi Calm Calm - N/A   Clear
8:56 AM 39.9 °F - 30.0 °F 68% 30.36 in 10.0 mi Calm Calm - N/A   Clear
9:56 AM 48.0 °F - 32.0 °F 54% 30.36 in 10.0 mi WNW 5.8 mph - N/A   Clear
10:56 AM 51.1 °F - 34.0 °F 52% 30.35 in 10.0 mi Variable 5.8 mph - N/A   Clear
11:56 AM 54.0 °F - 35.1 °F 49% 30.35 in 10.0 mi NNW 9.2 mph - N/A   Clear
12:56 PM 57.0 °F - 36.0 °F 45% 30.33 in 10.0 mi North 11.5 mph 21.9 mph N/A   Clear
1:56 PM 61.0 °F - 37.0 °F 41% 30.30 in 10.0 mi NNW 16.1 mph - N/A   Clear
2:56 PM 62.1 °F - 36.0 °F 38% 30.27 in 10.0 mi NNW 16.1 mph 25.3 mph N/A   Clear
3:56 PM 63.0 °F - 36.0 °F 37% 30.27 in 10.0 mi North 18.4 mph 26.5 mph N/A   Clear
4:56 PM 62.1 °F - 37.0 °F 39% 30.26 in 10.0 mi North 17.3 mph 24.2 mph N/A   Clear
5:56 PM 60.1 °F - 37.0 °F 42% 30.27 in 10.0 mi North 15.0 mph 23.0 mph N/A   Clear
6:56 PM 55.9 °F - 37.0 °F 49% 30.29 in 10.0 mi North 12.7 mph - N/A   Clear
7:56 PM 54.0 °F - 37.0 °F 53% 30.30 in 10.0 mi North 10.4 mph - N/A   Clear
8:56 PM 50.0 °F - 36.0 °F 59% 30.30 in 10.0 mi North 9.2 mph - N/A   Clear
9:56 PM 48.0 °F - 37.0 °F 66% 30.28 in 10.0 mi WNW 5.8 mph - N/A   Clear
10:56 PM 48.0 °F - 36.0 °F 63% 30.26 in 10.0 mi NW 8.1 mph - N/A   Clear
11:56 PM 45.0 °F 42.6 °F 36.0 °F 71% 30.25 in 10.0 mi West 4.6 mph - N/A   Clear